User: anonymous   Login
Location: Unspecified
(0.0000°N, 0.0000°E)
Time: 09:36:09
(UTC+00:00)
Language:

APRIZESAT 8 - Orbit

View from above orbital plane
View from above orbital plane
View from above satellite
View from above satellite

Ground track
Ground track

The orbit data is extracted from the following two-line orbital elements,

1 39425U 13066K   18267.64407279 +.00000060 +00000-0 +13989-4 0  9992
2 39425 097.5765 292.8287 0051883 183.5465 176.5388 14.81060668261376
Epoch (UTC): 24 September 2018 15:27:27
Eccentricity: 0.0051883
inclination: 97.5765°
perigee height: 589 km
apogee height: 662 km
right ascension of ascending node: 292.8287°
argument of perigee: 183.5465°
revolutions per day: 14.81060668
mean anomaly at epoch: 176.5388°
orbit number at epoch: 26137

The dashed part of the orbit path shows where the satellite is in the earth's shadow,  

DLR